Portada
METAR-TAF:

METAR-TAF

Aeroports :

Nowra, Austràlia

latitud: 34-57S, longitud: 150-32E, altitud: 122 m

Observació

L'informe es va fer fa 54 minuts, a les 09:00 UTC
Vent 5 kt del Oest
Temperatura 10°C
Humitat 87%
Pressió 1029 hPa
Visibilitat 10 km o més
Cel cobert a una alçada de 6100 ft

METAR: YSNW 240900Z AUTO 27005KT 9999 // OVC061 10/08 Q1029

Hora: 19:54 (09:54 UTC)


TAF: manca

Observacions i pronòstics meteorològics de més de 4000 aeroports (METAR i TAF).

Les estacions disponibles són els punts grocs i vermells al mapa.

Posi el ratolí al punt desitjat per veure el nom de l'estació.

Feu clic per veure les observacions i els pronòstics meteorològics.

Per canviar el mapa: feu clic els botons verds amb una creu de color negre per apropar; al botó verd amb un guió per allunyar la imatge; o en les fletxes verdes per a mapes adjacents.


METAR-TAF: